Погода в Котельникове

Россия / Курская область     51°17′53″N   36°18′41″E
темп.,
°C
ветер,
м/с
пор.,
м/с
влажн.,
%
обл.,
%
осадки,
мм/ч
давл.,
гПа
погр.,
м
27 июля, вт
вт2700:00+19в33524 0.0 102223
03:00+18в22615 0.0 102223
06:00+17ююв226511 0.0 102216
09:00+24ю224477 0.0 1022397
12:00+29ю22335 0.0 10212227
15:00+30з012921 0.0 10202883
18:00+29св113017 0.0 10192708
21:00+22вюв124891 0.0 101911
28 июля, ср
ср2800:00+23вюв23418 0.0 101944
03:00+18ю225261 0.0 101818
06:00+19ююв355156 0.0 101884
09:00+22ююз3650100 0.0 1017219
12:00+24ююз4847100 0.0 1016352
15:00+28ююз683887 0.0 10151611
18:00+24ю510525 0.1 1013406
21:00+18юз3488100 2.5 101472
29 июля, чт
чт2900:00+17ю2593100 0.3 1012126
03:00+18юз36950 0.3 1011108
06:00+18сз11915 0.0 101111
09:00+24ююз00675 0.0 1011322
12:00+29юз344410 0.0 10101809
15:00+31юз453999 0.0 10092380
18:00+24ююв346869 0.7 100773
21:00+20з71291100 2.6 1010294
30 июля, пт
пт3000:00+19ю3480100 1.2 100967
03:00+18юз119499 2.8 100814
06:00+19сз23955 0.0 1009112
09:00+23ссз34740 0.0 1009567
12:00+27сз34557 0.0 10091267
15:00+29зсз554845 0.0 10091960
18:00+27ссз564820 0.0 10091803
21:00+24ссз36602 0.0 1010143
31 июля, сб
сб3100:00+20ссз33710 0.0 101127
03:00+19ю11680 0.0 101111
06:00+19юз12655 0.0 101111
09:00+25зюз23461 0.0 1011469
12:00+29зюз34340 0.0 10102219
15:00+31з34310 0.0 10092553
18:00+30сз333622 0.0 1008702
21:00+24всв22480 0.0 100811